Regional Weather Roundup
Issued by NWS Charleston, WV

Home | Current Version | Previous Version | Graphics & Text | Print | Product List | Glossary On
Versions: 1 2 3 4 5 6 7 8 9 10 11 12 13 14 15 16 17 18 19 20 21 22 23 24 25 26 27 28 29 30 31 32 33 34 35 36 37 38 39 40 41 42 43 44 45 46 47 48 49 50
000
ASUS41 KRLX 010610
RWRRLX
West Virginia Regional Weather Roundup
National Weather Service Charleston WV
200 AM EDT TUE SEP 01 2015

Note: "fair" indicates few or no clouds below 12,000 feet with no
significant weather and/or obstructions to visibility.

WVZ003-010700-
Northern Panhandle of West Virginia

CITY           SKY/WX    TMP DP  RH WIND       PRES   REMARKS
WHEELING         N/A     69  66  90 SW3       30.12S
$$

WVZ009-010700-
Northwest West Virginia

CITY           SKY/WX    TMP DP  RH WIND       PRES   REMARKS
PARKERSBURG      N/A     70  67  90 CALM      30.14S
$$

WVZ006-010700-
Western West Virginia

CITY           SKY/WX    TMP DP  RH WIND       PRES   REMARKS
HUNTINGTON       N/A     67  67 100 CALM      30.12S FOG
$$

WVZ015-010700-
West Central West Virginia

CITY           SKY/WX    TMP DP  RH WIND       PRES   REMARKS
CHARLESTON       N/A     67  66  97 CALM      30.13S
$$

WVZ022-031-010700-
North Central West Virginia

CITY           SKY/WX    TMP DP  RH WIND       PRES   REMARKS
CLARKSBURG     CLOUDY    70  68  93 CALM      30.13S
MORGANTOWN       N/A     70  64  81 CALM      30.14S
$$

WVZ025-035-042-045-010700-
Southern West Virginia

CITY           SKY/WX    TMP DP  RH WIND       PRES   REMARKS
BECKLEY          N/A     63  60  90 CALM      30.20F
LOGAN            N/A     68  66  94 CALM      30.16S
BLUEFIELD      CLOUDY    68  60  75 CALM      30.23F
LEWISBURG      FOG       64  62  94 CALM      30.19F VSB 1/4
$$

WVZ047-010700-
Northern Mountains of West Virginia

CITY           SKY/WX    TMP DP  RH WIND       PRES   REMARKS
ELKINS           N/A     61  59  93 CALM      30.19S
$$

WVZ052-010700-
Eastern Panhandle of West Virginia

CITY           SKY/WX    TMP DP  RH WIND       PRES   REMARKS
MARTINSBURG      N/A     65  64  97 CALM      30.07S
PETERSBURG       N/A     65  64  97 CALM      30.12F FOG
$$


USA.gov is the U.S. government's official web portal to all federal, state and local government web resources and services.